EW0349 Weather Reports


time (UTC)temp
F
wind
direction
speed
knots
gust
knots
rain 1hr
in
rain 24hr
in
rain mn
in
humidity
%
barometer
mb
20260504223054 69 238 1.7 4.3 0.00 0.00 0.00 60 1011.7
20260504221542 68 215 0.9 5.2 0.00 0.00 0.00 61 1011.8
20260504220046 68 219 1.7 7.0 0.00 0.00 0.00 60 1012.1
20260504214547 68 187 0.9 4.3 0.00 0.00 0.00 60 1012.1
20260504213042 67 238 0.9 6.1 0.00 0.00 0.00 60 1012.3
20260504211538 67 83 0.9 7.0 0.00 0.00 0.00 61 1012.5
20260504210034 66 178 1.7 7.0 0.00 0.00 0.00 62 1012.6
20260504204532 65 180 0.9 4.3 0.00 0.00 0.00 62 1012.8
20260504203034 63 146 1.7 6.1 0.00 0.00 0.00 63 1012.9
20260504201528 63 187 0.9 4.3 0.00 0.00 0.00 64 1013.0
20260504200027 63 15 0.9 5.2 0.00 0.00 0.00 63 1013.1
20260504194525 62 188 2.6 7.8 0.00 0.00 0.00 62 1013.1
20260504193026 61 223 2.6 7.0 0.00 0.00 0.00 62 1013.2
20260504191525 60 180 0.9 6.1 0.00 0.00 0.00 63 1013.3
20260504190020 59 289 1.7 5.2 0.00 0.00 0.00 63 1013.5
20260504184520 58 199 0.9 7.0 0.00 0.00 0.00 62 1013.6
20260504183020 57 231 1.7 7.0 0.00 0.00 0.00 62 1013.5
20260504181526 57 275 1.7 7.8 0.00 0.00 0.00 62 1013.5
20260504180019 56 194 1.7 8.7 0.00 0.00 0.00 62 1013.5
20260504174518 56 169 0.9 6.1 0.00 0.00 0.00 61 1013.4
20260504173017 56 297 2.6 6.1 0.00 0.00 0.00 61 1013.4
20260504171516 56 267 0.9 7.0 0.00 0.00 0.00 60 1013.4
20260504081503 57 191 0.0 1.7 0.00 0.00 0.00 71 1009.4
20260504050019 69 244 0.0 1.7 0.00 0.00 0.00 54 1007.2
20260504044515 71 239 0.0 0.9 0.00 0.00 0.00 50 1007.1
20260504043012 72 260 0.0 2.6 0.00 0.00 0.00 48 1006.9
20260504041606 74 259 0.9 2.6 0.00 0.00 0.00 45 1006.8
20260504040006 75 271 0.0 2.6 0.00 0.00 0.00 43 1006.6
20260504034559 77 293 0.0 3.5 0.00 0.00 0.00 43 1006.5
20260504033113 77 270 0.0 2.6 0.00 0.00 0.00 44 1006.3
20260504031600 79 284 0.0 1.7 0.00 0.00 0.00 43 1006.3
20260504030051 79 267 0.0 2.6 0.00 0.00 0.00 42 1006.3
20260504024556 80 255 0.9 3.5 0.00 0.00 0.00 41 1006.2
20260504023045 83 265 0.0 1.7 0.00 0.00 0.00 34 1006.1
20260504021547 85 261 0.0 1.7 0.00 0.00 0.00 31 1006.1
20260504020035 86 258 0.0 0.9 0.00 0.00 0.00 31 1006.2
20260504014532 86 252 0.0 2.6 0.00 0.00 0.00 30 1006.2
20260504013031 87 306 0.0 1.7 0.00 0.00 0.00 32 1006.3
20260503234558 88 305 0.0 1.7 0.00 0.00 0.00 30 1006.7
20260503233055 88 20 0.0 3.5 0.00 0.00 0.00 30 1006.9
20260503231554 88 22 0.0 2.6 0.00 0.00 0.00 33 1007.1
20260503230050 87 304 0.9 5.2 0.00 0.00 0.00 29 1007.4
20260503224541 87 21 0.9 2.6 0.00 0.00 0.00 36 1007.7